Regional Weather Roundup
Issued by NWS

Home | Current Version | Previous Version | Graphics & Text | Print | Product List | Glossary On
Versions: 1 2 3 4 5 6 7 8 9 10 11 12 13 14 15 16 17 18 19 20 21 22 23 24 25 26 27 28 29 30 31 32 33 34 35 36 37 38 39 40 41 42 43 44 45 46 47 48 49 50
000
ASUS45 KTFX 031219
RWRMT
MONTANA HOURLY WEATHER ROUNDUP
NATIONAL WEATHER SERVICE GREAT FALLS MT
519 AM MST TUE MAR 3 2015

NOTE: "FAIR" INDICATES FEW OR NO CLOUDS BELOW 12000 FEET WITH NO
SIGNIFICANT WEATHER AND/OR OBSTRUCTIONS TO VISIBILITY.

* THESE STATIONS ARE NOT UNDER NWS QUALITY CONTROL. THEY DO NOT
   REPORT WEATHER SUCH AS PRECIPITATION OR FOG.

MTZ001>007-043-031300-
WEST OF THE DIVIDE
CITY           SKY/WX    TMP DP  RH WIND       PRES   REMARKS
KALISPELL      CLOUDY    16   1  51 N8        30.16S WCI   5
MISSOULA       PTCLDY    16   1  51 E12       30.14R WCI   3
BUTTE          CLOUDY     7  -2  66 N15G20    29.96R WCI -10
MULLAN PASS    CLOUDY     7   3  83 VRB3      29.90R
* ANACONDA     CLEAR      7  -4  60 NW14G21    N/A   WCI -10
* ESSEX        N/A        3  -5  69 SW1        N/A
* EUREKA APT   CLEAR      9   1  70 CALM      30.21S
* HAMILTON APT CLEAR     16   3  56 N7        30.08R WCI   6
* LIBBY APT    CLEAR      5   1  83 CALM      30.20S
* LINCOLN      N/A        7  -4  60 NE13G19    N/A   WCI  -9
* LOOKOUT PASS N/A       14   8  77 VRB2       N/A
* POLSON       N/A       16  -1  47 NE2G8      N/A
* RONAN APT    PTCLDY    21  16  81 N/A        N/A
* SEELEY LAKE  N/A        8   0  70 SE1        N/A
* THOMP F APT  PTCLDY    11  -1  58 N10G25     N/A   WCI  -2
* YAAK HILL    N/A       19   6  57 SW1        N/A
$$

MTZ008-052>055-031300-
SOUTHWEST MONTANA
CITY           SKY/WX    TMP DP  RH WIND       PRES   REMARKS
BOZEMAN        HAZE      10   7  88 W5        30.03R WCI   1
DILLON         MOCLDY     9   1  70 NE14      29.93R WCI  -7
* W YELLOWSTON CLOUDY     8   1  73 N7G17      N/A   WCI  -3
* THREE FORKS  PTCLDY    12   1  61 N15G23     N/A   WCI  -4
* BOULDER HILL N/A        4  -1  79 N15G20     N/A   WCI -14
* MONIDA PASS  N/A        6  -1  73 NW12       N/A   WCI -10
* RAYNOLDS PAS N/A        4   2  91 N22G28     N/A   WCI -18
* WHITEHALL    N/A       12   2  64 N10G19     N/A   WCI  -1
* WISE RIVER   N/A        7  -6  55 E13G20     N/A   WCI  -9
$$

MTZ009>010-012-014-046-048-049-054-031300-
EAST SLOPES AND CENTRAL MONTANA
CITY           SKY/WX    TMP DP  RH WIND       PRES   REMARKS
CUT BANK       CLEAR     -2  -8  75 W8        30.19S WCI -17
GREAT FALLS    CLEAR      1   0  95 CALM      30.21R
HELENA         CLOUDY    10   1  67 NW12      30.16R WCI  -5
MALMSTROM AFB  FAIR       5   0  80 NW2       30.24R
* CONRAD       CLEAR      0  -9  65 CALM       N/A
* DEARBORN     N/A        9   3  76 VRB6       N/A   WCI  -1
* EAST GLACIER N/A       -4  -8  83 W1         N/A
* MONARCH      N/A       -2  -6  83 W2         N/A
* PENDROY      N/A       -3  -8  79 NW4        N/A
* ROGERS PASS  N/A        1  -4  79 S4G9       N/A
* SWEET GRASS  N/A        0  -8  68 NW13       N/A   WCI -18
* WHITE SULPH  N/A        5  -5  63 NW8G21     N/A   WCI  -8
$$

MTZ011-013-016-021-035-040-045-047-050-051-031300-
NORTH CENTRAL MONTANA
CITY           SKY/WX    TMP DP  RH WIND       PRES   REMARKS
HAVRE          CLEAR      5  -2  72 W9        30.26R WCI  -9
LEWISTOWN      CLOUDY     5  -2  72 NW14      30.13R WCI -12
* N BAR RANCH  CLOUDY     3  -6  66 NW25G31   30.05R WCI -20
* CHINOOK      CLEAR      5  -2  72 W12       30.25R WCI -11
* FORT BENTON  CLEAR      7   0  73 W7        30.28S WCI  -5
* CHESTER      N/A        4  -6  63 NW11       N/A   WCI -12
* DENTON       N/A        6  -2  69 W11        N/A   WCI  -9
* GEYSER       N/A        2  -3  79 W9         N/A   WCI -13
* JUDITH GAP   N/A        2   0  91 N27G32     N/A   WCI -22
* LOMA         N/A        7  -1  69 W7         N/A   WCI  -5
$$

MTZ017>020-022>027-061-062-031300-
NORTHEAST MONTANA
CITY           SKY/WX    TMP DP  RH WIND       PRES   REMARKS
GLASGOW        CLEAR      5  -4  66 NW17      30.15R WCI -14
GLENDIVE       PTCLDY     7  -2  66 NW20      30.10R WCI -13
JORDAN         PTCLDY     7   0  73 NW13      30.15R WCI  -9
SIDNEY         PTCLDY     7   1  76 W10       30.13R WCI  -7
WOLF POINT     PTCLDY     7  -2  66 W12       30.16R WCI  -9
* BEAVER HILL  N/A        6  -4  63 NW22G28    N/A   WCI -15
* CIRCLE       N/A        7  -1  69 NW11G17    N/A   WCI  -8
* LINDSAY DVD  N/A        3  -5  69 NW19G26    N/A   WCI -18
* NAVAJO       N/A      N/A N/A N/A NW20G27    N/A
* PLENTYWOOD A CLEAR      0  -6  75 NW18      30.04R WCI -21
* POPLAR APT   CLEAR      5  -2  72 W9        30.15R WCI  -9
* SACO         N/A        4  -2  76 W11        N/A   WCI -12
* SCOBEY APT   CLEAR      1  -9  62 NW15G21    N/A   WCI -18
$$

MTZ028>042-056>058-031300-
SOUTHCENTRAL AND SOUTHEAST MONTANA
CITY           SKY/WX    TMP DP  RH WIND       PRES   REMARKS
BAKER          CLOUDY     9   1  70 NW18G26   30.02R WCI  -9
BILLINGS       LGT SNOW  10   3  73 N9        30.11R VSB 1 3/4 WCI  -3
LIVINGSTON     LGT SNOW  10   1  67 E6        30.04R VSB 2
MILES CITY     CLOUDY    10   1  67 N13       30.13R WCI  -5
* BIG TIMBER A CLOUDY     9   0  66 NE5       30.06R
* FORSYTH APT  CLOUDY    12  -2  53 NW15G21   30.14R WCI  -4
* LAUREL APT   CLOUDY    10   0  64 N/A        N/A
* ROUNDUP APT  MOCLDY     9   0  66 N6         N/A   WCI  -1
* ALZADA       N/A       12   8  84 W11G16     N/A   WCI  -2
* HYSHAM       N/A       10   0  64 VRB4G12    N/A
* REED POINT   N/A       12   4  70 NW5G10     N/A   WCI   4
* ROSCOE HILL  N/A        5   0  80 NW5G12     N/A   WCI  -5
$$

REGIONAL REPORTS...DAKOTAS
CITY           SKY/WX    TMP DP  RH WIND       PRES   REMARKS
WILLISTON      PTCLDY     1  -6  72 NW12      30.08R WCI -16
DICKINSON      CLOUDY     7  -6  55 NW23G31   29.96R WCI -14
BEACH          MOCLDY     5  -2  72 NW16G22   30.04R WCI -14
CROSBY         CLEAR      0  -6  75 NW17      30.04R WCI -21
TIOGA          CLOUDY     0  -4  83 W18       30.02R WCI -21
WATFORD CITY   N/A        1  -4  79 NW14      30.04R WCI -18
BISMARCK       CLOUDY     9  -2  61 NW25G40   29.96R WCI -12
GRAND FORKS    CLOUDY    18  10  71 NW17G26   29.80R WCI   3
FARGO          LGT SNOW  19  14  81 NW25G33   29.74R VSB 1 3/4 WCI   1
BUFFALO SD     CLOUDY    10   1  67 NW25G33   29.89R WCI -11
RAPID CITY     FOG       16  12  84 N32G43    29.89R VSB 3/4  WCI  -5
$$

REGIONAL REPORTS...WYOMING/IDAHO/WASHINGTON
CITY           SKY/WX    TMP DP  RH WIND       PRES   REMARKS
GILLETTE       LGT SNOW  10   5  80 N17       29.95R VSB 1 3/4 WCI  -8
SHERIDAN       LGT SNOW  12   7  80 NW17      30.02S WCI  -5
CODY           CLOUDY    10   5  80 N15G22    29.93R WCI  -7
YELLOWSTONE LA CLOUDY     3  -2  79 VRB6      29.71R WCI  -8
SALMON         CLOUDY    21   3  45 N13       29.95R WCI   8
MULLAN PASS    CLOUDY     7   3  83 VRB3      29.90S
SAND POINT     CLEAR     23  10  57 N7        30.17R WCI  15
SPOKANE        CLEAR     21  16  81 N5        30.13R WCI  14
$$

REGIONAL REPORTS...ALBERTA
CITY           SKY/WX    TMP DP  RH WIND       PRES   REMARKS
CALGARY        N/A        3  -8  60 W5        30.19F WCI  -7
LETHBRIDGE     FAIR       3  -6  66 NW10      30.26F WCI -12
MEDICINE HAT   CLEAR      3  -4  72 W10       30.28S WCI -12
EDMONTON       N/A       -2 -11  65 W9        30.23F WCI -18
WATERTON GATE  N/A       -2  -6  83 E1         N/A
CARDSTON       N/A        0  -4  83 W1         N/A
MILK RIVER     N/A       -6  -9  87 NW5        N/A   WCI -18
$$

REGIONAL REPORTS...SASKATCHEWAN
CITY           SKY/WX    TMP DP  RH WIND       PRES   REMARKS
SWIFT CURRENT  CLOUDY     0  -8  68 NW20G26   30.09S WCI -22
MOOSE JAW      SNOW      -2  -6  83 NW22      30.11R WCI -26
REGINA         SNOW      -6 -11  78 W16       30.05R WCI -28
VAL MARIE      N/A        1  -2  87 NW12       N/A   WCI -16
CORONACH       N/A        0  -6  75 NW26G33    N/A   WCI -24

$$



USA.gov is the U.S. government's official web portal to all federal, state and local government web resources and services.